Location: Eastchurch
(51.4000°N, 0.8667°E)
Time: 20:54:17
(UTC+00:00)

SJ-7 - Pass Details

Date: 19 January 2026
Orbit: 495 x 520 km, 97.7° (Epoch: 16 February)

Event Time Altitude Azimuth Distance (km) Brightness Sun altitude
Rises 17:55:25 0° 151° (SSE) 2,641 7.7 -13.9°
Reaches altitude 10° 17:57:33 10° 146° (SE) 1,755 6.7 -14.2°
Maximum altitude 18:01:12 50° 71° (ENE) 671 4.3 -14.7°
Drops below altitude 10° 18:04:53 10° 355° (N) 1,758 6.8 -15.3°
Sets 18:07:01 0° 351° (N) 2,646 7.8 -15.6°
